Time,TemperatureF,DewpointF,PressureIn,WindDirection,WindDirectionDegrees,WindSpeedMPH,WindSpeedGustMPH,Humidity,HourlyPrecipIn,Conditions,Clouds,dailyrainin,SolarRadiationWatts/m^2,SoftwareType,DateUTC
2013-02-17 00:01:00,39.0,38.0,-100.00,NNW,345,4.0,8.0,98,0.01,,,0.08,0.000000,,2013-02-17 08:01:00,
2013-02-17 00:32:00,38.0,37.0,-100.00,NNW,335,4.0,6.0,98,0.01,,,0.09,0.000000,,2013-02-17 08:32:00,
2013-02-17 00:42:00,38.0,37.0,-100.00,NNW,335,4.0,6.0,98,0.01,,,0.09,0.000000,,2013-02-17 08:42:00,
2013-02-17 00:52:00,38.0,37.0,-100.00,NNW,335,4.0,6.0,98,0.01,,,0.09,0.000000,,2013-02-17 08:52:00,
2013-02-17 01:01:00,38.0,37.0,-100.00,NNW,335,4.0,6.0,98,0.01,,,0.09,0.000000,,2013-02-17 09:01:00,
2013-02-17 01:32:00,37.0,36.0,-100.00,NE,40,2.0,6.0,98,0.00,,,-99.99,0.000000,,2013-02-17 09:32:00,
2013-02-17 01:42:00,37.0,36.0,-100.00,NE,40,2.0,6.0,98,0.00,,,-99.99,0.000000,,2013-02-17 09:42:00,
2013-02-17 01:52:00,37.0,36.0,-100.00,NE,40,2.0,6.0,98,0.00,,,-99.99,0.000000,,2013-02-17 09:52:00,
2013-02-17 02:01:00,37.0,36.0,-100.00,NE,40,2.0,6.0,98,0.00,,,-99.99,0.000000,,2013-02-17 10:01:00,
2013-02-17 02:32:00,38.0,37.0,-100.00,NE,48,1.0,4.0,98,0.00,,,0.09,0.000000,,2013-02-17 10:32:00,
2013-02-17 02:42:00,38.0,37.0,-100.00,NE,48,1.0,4.0,98,0.00,,,0.09,0.000000,,2013-02-17 10:42:00,
2013-02-17 02:52:00,38.0,37.0,-100.00,NE,48,1.0,4.0,98,0.00,,,0.09,0.000000,,2013-02-17 10:52:00,
2013-02-17 03:01:00,38.0,37.0,-100.00,NE,48,1.0,4.0,98,0.00,,,0.09,0.000000,,2013-02-17 11:01:00,
2013-02-17 03:32:00,38.0,37.0,-100.00,SE,145,4.0,6.0,97,0.00,,,0.09,0.000000,,2013-02-17 11:32:00,
2013-02-17 03:42:00,38.0,37.0,-100.00,SE,145,4.0,6.0,97,0.00,,,0.09,0.000000,,2013-02-17 11:42:00,
2013-02-17 03:52:00,38.0,37.0,-100.00,SE,145,4.0,6.0,97,0.00,,,0.09,0.000000,,2013-02-17 11:52:00,
2013-02-17 04:02:00,38.0,37.0,-100.00,SE,145,4.0,6.0,97,0.00,,,0.09,0.000000,,2013-02-17 12:02:00,
2013-02-17 04:32:00,37.0,36.0,-100.00,ESE,105,3.0,7.0,96,0.00,,,0.09,0.000000,,2013-02-17 12:32:00,
2013-02-17 04:42:00,37.0,36.0,-100.00,ESE,105,3.0,7.0,96,0.00,,,0.09,0.000000,,2013-02-17 12:42:00,
2013-02-17 04:52:00,37.0,36.0,-100.00,ESE,105,3.0,7.0,96,0.00,,,0.09,0.000000,,2013-02-17 12:52:00,
2013-02-17 05:02:00,37.0,36.0,-100.00,ESE,105,3.0,7.0,96,0.00,,,0.09,0.000000,,2013-02-17 13:02:00,
2013-02-17 06:32:00,36.0,34.0,-100.00,East,88,5.0,11.0,92,-99.99,,,0.09,0.000000,,2013-02-17 14:32:00,
2013-02-17 06:42:00,36.0,34.0,-100.00,East,88,5.0,11.0,92,-99.99,,,0.09,0.000000,,2013-02-17 14:42:00,
2013-02-17 06:53:00,36.0,34.0,-100.00,East,88,5.0,11.0,92,-99.99,,,0.09,0.000000,,2013-02-17 14:53:00,
2013-02-17 07:01:00,36.0,34.0,-100.00,East,88,5.0,11.0,92,-99.99,,,0.09,0.000000,,2013-02-17 15:01:00,
2013-02-17 07:32:00,36.0,35.0,-100.00,SSE,150,2.0,6.0,95,0.00,,,0.08,0.000000,,2013-02-17 15:32:00,
2013-02-17 07:42:00,36.0,35.0,-100.00,SSE,150,2.0,6.0,95,0.00,,,0.08,0.000000,,2013-02-17 15:42:00,
2013-02-17 07:52:00,36.0,35.0,-100.00,SSE,150,2.0,6.0,95,0.00,,,0.08,0.000000,,2013-02-17 15:52:00,
2013-02-17 08:01:00,36.0,35.0,-100.00,SSE,150,2.0,6.0,95,0.00,,,0.08,0.000000,,2013-02-17 16:01:00,
2013-02-17 08:32:00,36.0,34.0,-100.00,SSE,163,3.0,5.0,94,0.00,,,0.08,23.000000,,2013-02-17 16:32:00,
2013-02-17 08:42:00,36.0,34.0,-100.00,SSE,163,3.0,5.0,94,0.00,,,0.08,23.000000,,2013-02-17 16:42:00,
2013-02-17 08:52:00,36.0,34.0,-100.00,SSE,163,3.0,5.0,94,0.00,,,0.08,23.000000,,2013-02-17 16:52:00,
2013-02-17 09:02:00,36.0,34.0,-100.00,SSE,163,3.0,5.0,94,0.00,,,0.08,23.000000,,2013-02-17 17:02:00,
2013-02-17 09:32:00,40.0,35.0,-100.00,SE,134,1.0,5.0,83,0.00,,,0.07,138.000000,,2013-02-17 17:32:00,
2013-02-17 09:42:00,40.0,35.0,-100.00,SE,134,1.0,5.0,83,0.00,,,0.07,138.000000,,2013-02-17 17:42:00,
2013-02-17 09:52:00,40.0,35.0,-100.00,SE,134,1.0,5.0,83,0.00,,,0.07,138.000000,,2013-02-17 17:52:00,
2013-02-17 10:01:00,40.0,35.0,-100.00,SE,134,1.0,5.0,83,0.00,,,0.07,138.000000,,2013-02-17 18:01:00,
2013-02-17 10:33:00,41.0,37.0,-100.00,NNE,19,2.0,4.0,86,0.00,,,0.05,260.000000,,2013-02-17 18:33:00,
2013-02-17 10:42:00,41.0,37.0,-100.00,NNE,19,2.0,4.0,86,0.00,,,0.05,260.000000,,2013-02-17 18:42:00,
2013-02-17 10:52:00,41.0,37.0,-100.00,NNE,19,2.0,4.0,86,0.00,,,0.05,260.000000,,2013-02-17 18:52:00,
2013-02-17 11:01:00,41.0,37.0,-100.00,NNE,19,2.0,4.0,86,0.00,,,0.05,260.000000,,2013-02-17 19:01:00,
2013-02-17 11:32:00,42.0,37.0,-100.00,South,169,3.0,6.0,83,0.00,,,0.03,252.000000,,2013-02-17 19:32:00,
2013-02-17 11:42:00,42.0,37.0,-100.00,South,169,3.0,6.0,83,0.00,,,0.03,252.000000,,2013-02-17 19:42:00,
2013-02-17 11:52:00,42.0,37.0,-100.00,South,169,3.0,6.0,83,0.00,,,0.03,252.000000,,2013-02-17 19:52:00,
2013-02-17 12:01:00,42.0,37.0,-100.00,South,169,3.0,6.0,83,0.00,,,0.03,252.000000,,2013-02-17 20:01:00,
2013-02-17 12:32:00,45.0,39.0,-100.00,SE,137,1.0,5.0,79,0.00,,,0.03,315.000000,,2013-02-17 20:32:00,
2013-02-17 12:42:00,45.0,39.0,-100.00,SE,137,1.0,5.0,79,0.00,,,0.03,315.000000,,2013-02-17 20:42:00,
2013-02-17 12:52:00,45.0,39.0,-100.00,SE,137,1.0,5.0,79,0.00,,,0.03,315.000000,,2013-02-17 20:52:00,
2013-02-17 13:01:00,45.0,39.0,-100.00,SE,137,1.0,5.0,79,0.00,,,0.03,315.000000,,2013-02-17 21:01:00,
2013-02-17 13:32:00,47.0,35.0,-100.00,North,352,2.0,5.0,64,0.00,,,0.03,396.000000,,2013-02-17 21:32:00,
2013-02-17 13:42:00,47.0,35.0,-100.00,North,352,2.0,5.0,64,0.00,,,0.03,396.000000,,2013-02-17 21:42:00,
2013-02-17 13:53:00,47.0,35.0,-100.00,North,352,2.0,5.0,64,0.00,,,0.03,396.000000,,2013-02-17 21:53:00,
2013-02-17 14:01:00,47.0,35.0,-100.00,North,352,2.0,5.0,64,0.00,,,0.03,396.000000,,2013-02-17 22:01:00,
2013-02-17 14:32:00,45.0,32.0,-100.00,North,357,2.0,6.0,61,0.00,,,0.03,221.000000,,2013-02-17 22:32:00,
2013-02-17 14:42:00,45.0,32.0,-100.00,North,357,2.0,6.0,61,0.00,,,0.03,221.000000,,2013-02-17 22:42:00,
2013-02-17 14:52:00,45.0,32.0,-100.00,North,357,2.0,6.0,61,0.00,,,0.03,221.000000,,2013-02-17 22:52:00,
2013-02-17 15:01:00,45.0,32.0,-100.00,North,357,2.0,6.0,61,0.00,,,0.03,221.000000,,2013-02-17 23:01:00,
2013-02-17 15:32:00,43.0,38.0,-100.00,NNW,339,3.0,7.0,82,0.00,,,0.03,240.000000,,2013-02-17 23:32:00,
2013-02-17 15:42:00,43.0,38.0,-100.00,NNW,339,3.0,7.0,82,0.00,,,0.03,240.000000,,2013-02-17 23:42:00,
2013-02-17 15:52:00,43.0,38.0,-100.00,NNW,339,3.0,7.0,82,0.00,,,0.03,240.000000,,2013-02-17 23:52:00,
2013-02-17 16:01:00,43.0,38.0,-100.00,NNW,339,3.0,7.0,82,0.00,,,0.03,240.000000,,2013-02-18 00:01:00,
2013-02-17 16:32:00,43.0,35.0,-100.00,NNW,332,3.0,6.0,73,0.00,,,0.03,175.000000,,2013-02-18 00:32:00,
2013-02-17 16:42:00,43.0,35.0,-100.00,NNW,332,3.0,6.0,73,0.00,,,0.03,175.000000,,2013-02-18 00:42:00,
2013-02-17 16:52:00,43.0,35.0,-100.00,NNW,332,3.0,6.0,73,0.00,,,0.03,175.000000,,2013-02-18 00:52:00,
2013-02-17 17:01:00,43.0,35.0,-100.00,NNW,332,3.0,6.0,73,0.00,,,0.03,175.000000,,2013-02-18 01:01:00,
2013-02-17 18:32:00,38.0,35.0,-100.00,NNW,333,4.0,6.0,90,-99.99,,,0.03,14.000000,,2013-02-18 02:32:00,
2013-02-17 18:42:00,38.0,35.0,-100.00,NNW,333,4.0,6.0,90,-99.99,,,0.03,14.000000,,2013-02-18 02:42:00,
2013-02-17 18:52:00,38.0,35.0,-100.00,NNW,333,4.0,6.0,90,-99.99,,,0.03,14.000000,,2013-02-18 02:52:00,
2013-02-17 19:01:00,38.0,35.0,-100.00,NNW,333,4.0,6.0,90,-99.99,,,0.03,14.000000,,2013-02-18 03:01:00,
2013-02-17 19:32:00,38.0,35.0,-100.00,NNW,343,2.0,5.0,89,0.00,,,0.03,0.000000,,2013-02-18 03:32:00,
2013-02-17 19:42:00,38.0,35.0,-100.00,NNW,343,2.0,5.0,89,0.00,,,0.03,0.000000,,2013-02-18 03:42:00,
2013-02-17 19:52:00,38.0,35.0,-100.00,NNW,343,2.0,5.0,89,0.00,,,0.03,0.000000,,2013-02-18 03:52:00,
2013-02-17 20:01:00,38.0,35.0,-100.00,NNW,343,2.0,5.0,89,0.00,,,0.03,0.000000,,2013-02-18 04:01:00,
2013-02-17 20:32:00,37.0,35.0,-100.00,NNE,12,2.0,4.0,91,0.00,,,0.03,0.000000,,2013-02-18 04:32:00,
2013-02-17 20:42:00,37.0,35.0,-100.00,NNE,12,2.0,4.0,91,0.00,,,0.03,0.000000,,2013-02-18 04:42:00,
2013-02-17 20:52:00,37.0,35.0,-100.00,NNE,12,2.0,4.0,91,0.00,,,0.03,0.000000,,2013-02-18 04:52:00,
2013-02-17 21:01:00,37.0,35.0,-100.00,NNE,12,2.0,4.0,91,0.00,,,0.03,0.000000,,2013-02-18 05:01:00,
2013-02-17 21:32:00,36.0,34.0,-100.00,NNE,26,3.0,4.0,94,0.00,,,0.03,0.000000,,2013-02-18 05:32:00,
2013-02-17 21:42:00,36.0,34.0,-100.00,NNE,26,3.0,4.0,94,0.00,,,0.03,0.000000,,2013-02-18 05:42:00,
2013-02-17 21:52:00,36.0,34.0,-100.00,NNE,26,3.0,4.0,94,0.00,,,0.03,0.000000,,2013-02-18 05:52:00,
2013-02-17 22:02:00,36.0,34.0,-100.00,NNE,26,3.0,4.0,94,0.00,,,0.03,0.000000,,2013-02-18 06:02:00,
2013-02-17 23:32:00,36.0,34.0,-100.00,South,169,4.0,6.0,92,-99.99,,,0.01,0.000000,,2013-02-18 07:32:00,
2013-02-17 23:42:00,36.0,34.0,-100.00,South,169,4.0,6.0,92,-99.99,,,0.01,0.000000,,2013-02-18 07:42:00,
2013-02-17 23:52:00,36.0,34.0,-100.00,South,169,4.0,6.0,92,-99.99,,,0.01,0.000000,,2013-02-18 07:52:00,